Погода в Электроуглях

Россия / Московская область     55°43′00″N   38°13′10″E
темп.,
°C
ветер,
м/с
пор.,
м/с
влажн.,
%
обл.,
%
осадки,
мм/ч
давл.,
гПа
погр.,
м
11 мая, вт
вт1100:00+5св39845 0.0 1027165
03:00+4ссв39880 0.0 1028173
06:00+6св412810 0.0 1028327
09:00+12св59550 0.0 1027648
12:00+17св57460 0.0 1026853
15:00+19всв56505 0.0 1025990
18:00+18всв47650 0.0 1025767
21:00+12всв389435 0.1 1026148
12 мая, ср
ср1200:00+11ююв259827 0.0 1027115
03:00+9ю119377 0.0 102711
06:00+10зсз1186100 0.0 102738
09:00+15ссв236618 0.0 1026571
12:00+20всв5116798 0.9 10231502
15:00+19в7146786 1.8 10201820
18:00+14в71387100 0.4 10201157
21:00+13ююв4119346 1.0 1021964
13 мая, чт
чт1300:00+8юв2498100 0.0 102296
03:00+7вюв249885 0.0 1022103
06:00+8вюв279638 0.0 1021205
09:00+14юв35679 0.0 1020572
12:00+14юв3578100 0.6 1019649
15:00+12ссв2296100 9.6 1018192
18:00+14ююв2485100 0.1 1017692
21:00+10юв269819 0.1 1018140
14 мая, пт
пт1400:00+9юв2597100 0.0 101893
03:00+9юв269811 0.0 1018129
06:00+10юв3896100 0.0 1018233
09:00+14юв3886100 0.0 1018443
12:00+19ююв475752 0.0 10171045
15:00+21юв475297 0.0 10151228
18:00+19юв51179100 1.2 1014597
21:00+16в4995100 5.3 1013208
15 мая, сб
сб1500:00+14вюв379843 4.4 1013165
03:00+13юв259818 4.4 101291
06:00+15ю2597100 0.6 1013137
09:00+19вюв3582100 0.6 1011357
12:00+20вюв2585100 2.6 1009324
15:00+17ююз3894100 7.9 1009400
18:00+20юз37829 0.6 1008899
21:00+16ююз239495 1.1 100847